Weather History for Canby, MN

Change the Weather History Date:

Friday, September 13, 2013

  Actual Average (KMML) Record (KMML)
Temperature  
Mean Temperature 59 °F -  
Max Temperature 75 °F 72 °F 95 °F (1990)
Min Temperature 43 °F 51 °F 35 °F (1975)
Degree Days  
Heating Degree Days 6    
Growing Degree Days 9 (Base 50)    
Moisture  
Dew Point 46 °F    
Average Humidity 66    
Maximum Humidity 96    
Minimum Humidity 32    
Precipitation  
Precipitation 0.00 in - - ()
Sea Level Pressure  
Sea Level Pressure 30.18 in    
Wind  
Wind Speed 3 mph (SSE)    
Max Wind Speed 12 mph    
Max Gust Speed 12 mph    
Visibility 10 miles    
Events      
Averages and records for this station are not official NWS values.
T = Trace of Precipitation, MM = Missing Value Source: NWS Daily Summary

Daily Weather History Graph

Daily Weather History Graph

Search for Another Location

Airport:

Trip Planner

Search our weather history database for the weather conditions in past years. The results will help you decide how hot, cold, wet, or windy it might be!

Date:

Astronomy

Sep. 13, 2013 Rise Set
Actual Time 7:01 AM CDT 7:39 PM CDT
Civil Twilight 6:32 AM CDT 8:08 PM CDT
Nautical Twilight 5:57 AM CDT 8:43 PM CDT
Astronomical Twilight 5:21 AM CDT 9:19 PM CDT
Moon 3:40 PM CDT (9/13) 12:21 AM CDT (9/13)
Length of Visible Light 13h 36m
Length of Day
12h 37m
First Quarter, 61% of the Moon is Illuminated
Sep 13
First Quarter
Sep 19
Full
Sep 26
Last Quarter
Oct 4
New
Oct 11
First Quarter

Hourly Weather History & Observations

Time (CDT) Temp. Dew Point Humidity Pressure Visibility Wind Dir Wind Speed Gust Speed Precip Events Conditions
12:13 AM 51.1 °F 47.3 °F 87% 30.25 in 10.0 mi Calm Calm - N/A   Clear
12:34 AM 50.2 °F 46.8 °F 88% 30.25 in 10.0 mi Calm Calm - N/A   Clear
12:54 AM 49.6 °F 46.4 °F 89% 30.26 in 10.0 mi Calm Calm - N/A   Clear
1:14 AM 49.1 °F 46.4 °F 90% 30.26 in 10.0 mi Calm Calm - N/A   Clear
1:33 AM 48.6 °F 45.9 °F 90% 30.26 in 10.0 mi Calm Calm - N/A   Clear
1:54 AM 49.1 °F 46.9 °F 92% 30.26 in 10.0 mi Calm Calm - N/A   Clear
2:14 AM 47.8 °F 45.5 °F 92% 30.25 in 10.0 mi Calm Calm - N/A   Clear
2:34 AM 47.8 °F 45.7 °F 92% 30.26 in 10.0 mi Calm Calm - N/A   Clear
2:54 AM 45.9 °F 43.5 °F 92% 30.26 in 10.0 mi Calm Calm - N/A   Clear
3:14 AM 45.7 °F 43.9 °F 93% 30.26 in 10.0 mi Calm Calm - N/A   Clear
3:33 AM 45.5 °F 43.5 °F 93% 30.26 in 10.0 mi Calm Calm - N/A   Clear
3:53 AM 46.4 °F 44.6 °F 93% 30.25 in 10.0 mi Calm Calm - N/A   Clear
4:14 AM 44.2 °F 42.6 °F 94% 30.25 in 10.0 mi Calm Calm - N/A   Clear
4:33 AM 44.6 °F 43.2 °F 95% 30.26 in 10.0 mi Calm Calm - N/A   Clear
4:54 AM 44.8 °F 43.2 °F 94% 30.26 in 10.0 mi Calm Calm - N/A   Clear
5:14 AM 44.4 °F 42.6 °F 93% 30.26 in 10.0 mi Calm Calm - N/A   Clear
5:34 AM 44.2 °F 42.8 °F 95% 30.27 in 10.0 mi Calm Calm - N/A   Clear
5:54 AM 44.2 °F 42.8 °F 95% 30.26 in 10.0 mi Calm Calm - N/A   Clear
6:14 AM 44.6 °F 42.8 °F 93% 30.26 in 10.0 mi Calm Calm - N/A   Clear
6:33 AM 43.9 °F 42.8 °F 96% 30.26 in 10.0 mi Calm Calm - N/A   Clear
6:54 AM 44.4 °F 43.3 °F 96% 30.26 in 10.0 mi Calm Calm - N/A   Clear
7:13 AM 44.1 °F 42.8 °F 95% 30.27 in 10.0 mi Calm Calm - N/A   Clear
7:34 AM 44.4 °F 43.2 °F 95% 30.27 in 10.0 mi Calm Calm - N/A   Clear
7:54 AM 46.0 °F 44.8 °F 95% 30.26 in 10.0 mi Calm Calm - N/A   Clear
8:14 AM 49.3 °F 47.7 °F 94% 30.27 in 10.0 mi Calm Calm - N/A   Clear
8:34 AM 52.3 °F 49.5 °F 90% 30.26 in 7.0 mi Calm Calm - N/A   Clear
8:53 AM 55.4 °F 50.7 °F 84% 30.26 in 10.0 mi Calm Calm - N/A   Clear
9:14 AM 58.6 °F 50.2 °F 73% 30.26 in 10.0 mi SSE 6.9 mph - N/A   Clear
9:33 AM 61.5 °F 50.0 °F 66% 30.26 in 10.0 mi SE 6.9 mph - N/A   Clear
9:54 AM 63.5 °F 47.3 °F 56% 30.26 in 10.0 mi SE 9.2 mph - N/A   Clear
10:14 AM 64.2 °F 47.1 °F 54% 30.26 in 10.0 mi SE 9.2 mph - N/A   Clear
10:33 AM 65.5 °F 47.1 °F 51% 30.25 in 10.0 mi SE 6.9 mph - N/A   Clear
10:54 AM 66.9 °F 46.0 °F 47% 30.25 in 10.0 mi SSE 9.2 mph - N/A   Clear
11:14 AM 67.5 °F 46.2 °F 46% 30.24 in 10.0 mi ESE 10.4 mph - N/A   Clear
11:33 AM 68.0 °F 46.2 °F 46% 30.24 in 10.0 mi SE 9.2 mph - N/A   Clear
11:54 AM 69.3 °F 46.8 °F 45% 30.23 in 10.0 mi ESE 6.9 mph - N/A   Clear
12:14 PM 69.8 °F 46.0 °F 43% 30.23 in 10.0 mi South 6.9 mph - N/A   Clear
12:34 PM 70.5 °F 45.7 °F 41% 30.21 in 10.0 mi SSE 9.2 mph - N/A   Clear
12:53 PM 71.1 °F 46.0 °F 41% 30.20 in 10.0 mi SSE 8.1 mph - N/A   Clear
1:14 PM 71.2 °F 45.3 °F 39% 30.19 in 10.0 mi SSE 5.8 mph - N/A   Clear
1:33 PM 71.8 °F 46.0 °F 40% 30.18 in 10.0 mi SSE 6.9 mph 11.5 mph N/A   Clear
1:54 PM 72.3 °F 45.9 °F 39% 30.18 in 10.0 mi SSE 11.5 mph - N/A   Clear
2:14 PM 73.2 °F 45.3 °F 37% 30.17 in 10.0 mi SE 6.9 mph - N/A   Clear
2:33 PM 73.0 °F 45.1 °F 37% 30.16 in 10.0 mi South 6.9 mph - N/A   Clear
2:54 PM 74.1 °F 45.1 °F 35% 30.15 in 10.0 mi SSE 5.8 mph - N/A   Clear
3:14 PM 74.1 °F 45.7 °F 36% 30.14 in 10.0 mi SSE 8.1 mph - N/A   Clear
3:34 PM 74.3 °F 43.9 °F 34% 30.13 in 10.0 mi WSW 5.8 mph - N/A   Clear
3:53 PM 74.7 °F 43.2 °F 32% 30.13 in 10.0 mi SSW 6.9 mph - N/A   Clear
4:14 PM 74.8 °F 43.2 °F 32% 30.12 in 10.0 mi SSW 5.8 mph - N/A   Clear
4:34 PM 74.3 °F 44.6 °F 35% 30.11 in 10.0 mi SE 9.2 mph - N/A   Clear
4:53 PM 75.0 °F 44.4 °F 34% 30.11 in 10.0 mi South 9.2 mph - N/A   Clear
5:14 PM 73.9 °F 45.0 °F 35% 30.11 in 10.0 mi SSE 9.2 mph - N/A   Clear
5:34 PM 74.5 °F 45.0 °F 35% 30.10 in 10.0 mi South 9.2 mph - N/A   Clear
5:53 PM 73.2 °F 45.7 °F 37% 30.10 in 10.0 mi SSE 6.9 mph - N/A   Clear
6:14 PM 72.9 °F 45.5 °F 38% 30.09 in 10.0 mi SSE 10.4 mph - N/A   Clear
6:34 PM 72.1 °F 45.7 °F 39% 30.09 in 10.0 mi South 5.8 mph - N/A   Clear
6:53 PM 71.1 °F 46.0 °F 41% 30.08 in 10.0 mi South 4.6 mph - N/A   Clear
7:14 PM 69.1 °F 46.6 °F 45% 30.07 in 10.0 mi South 4.6 mph - N/A   Clear
7:34 PM 67.8 °F 46.9 °F 47% 30.07 in 10.0 mi South 5.8 mph - N/A   Clear
7:54 PM 66.2 °F 47.7 °F 51% 30.07 in 10.0 mi SSE 4.6 mph - N/A   Clear
8:13 PM 62.2 °F 48.6 °F 61% 30.07 in 10.0 mi SSE 6.9 mph - N/A   Clear
8:34 PM 62.1 °F 48.7 °F 62% 30.07 in 10.0 mi SSE 5.8 mph - N/A   Clear
8:54 PM 61.0 °F 48.7 °F 64% 30.06 in 10.0 mi SSE 6.9 mph - N/A   Clear
9:13 PM 59.7 °F 49.1 °F 68% 30.06 in 10.0 mi SSE 5.8 mph - N/A   Clear
9:34 PM 58.8 °F 49.1 °F 70% 30.06 in 10.0 mi South 4.6 mph - N/A   Clear
9:54 PM 57.0 °F 49.1 °F 75% 30.06 in 10.0 mi SSE 5.8 mph - N/A   Clear
10:14 PM 56.3 °F 49.1 °F 77% 30.05 in 10.0 mi SSE 4.6 mph - N/A   Clear
10:33 PM 57.4 °F 49.3 °F 74% 30.05 in 10.0 mi South 5.8 mph - N/A   Clear
10:54 PM 57.6 °F 49.3 °F 74% 30.05 in 10.0 mi South 6.9 mph - N/A   Clear
11:14 PM 57.7 °F 49.1 °F 73% 30.05 in 10.0 mi South 5.8 mph - N/A   Clear
11:34 PM 57.4 °F 49.1 °F 74% 30.04 in 10.0 mi South 6.9 mph - N/A   Clear
11:54 PM 57.2 °F 49.1 °F 74% 30.04 in 10.0 mi South 5.8 mph - N/A   Clear